Location: Lombard
(41.8800°N, 88.0080°W)
Time: 04:19:53
(UTC-05:00)

Vanguard 2 Rocket - Pass Details

Date: 24 February 2024
Orbit: 555 x 3307 km, 32.9° (Epoch: 12 April)

Event Time Altitude Azimuth Distance (km) Brightness Sun altitude
Rises 12:47:06 0° 207° (SSW) 3,834 11.0 37.8°
Reaches altitude 10° 12:49:53 10° 194° (SSW) 3,195 11.0 37.7°
Maximum altitude 12:56:31 26° 141° (SE) 2,866 10.2 37.4°
Drops below altitude 10° 13:06:30 10° 92° (E) 4,973 10.6 36.8°
Sets 13:12:11 0° 82° (E) 6,453 11.0 36.4°
